• In Latvia
  • List of Countries
  • For 7 days
  • Water Temperature
  • Satellite Maps
  • Weather Map
  • Weather Widgets
  • user-avatar
    Login

    Hourly Weather Sankt Polten

    Today, 17 October, Tuesday

    Time Temperature Precipitation Wind Pressure Humidity
    00:00 +15°C° 0 mm 1 mps 743 mmHg 78%
    01:00 +15°C° 0 mm 1 mps 743 mmHg 77%
    02:00 +14°C° 0 mm 1 mps 743 mmHg 76%
    03:00 +14°C° 0 mm 1 mps 743 mmHg 76%
    04:00 +14°C° 0 mm 1 mps 743 mmHg 76%
    05:00 +14°C° 0 mm 1 mps 743 mmHg 75%
    06:00 +14°C° 0 mm 1 mps 743 mmHg 75%
    07:00 +13°C° 0 mm 1 mps 743 mmHg 72%
    08:00 +16°C° 0 mm 1 mps 743 mmHg 65%
    09:00 +19°C° 0 mm 1 mps 743 mmHg 58%
    10:00 +22°C° 0 mm 1 mps 743 mmHg 52%
    11:00 +23°C° 0 mm 1 mps 742 mmHg 50%
    12:00 +24°C° 0 mm 1 mps 742 mmHg 48%
    13:00 +24°C° 0 mm 2 mps 742 mmHg 46%
    14:00 +24°C° 0 mm 2 mps 741 mmHg 52%
    15:00 +23°C° 0 mm 2 mps 741 mmHg 58%
    16:00 +22°C° 0 mm 1 mps 740 mmHg 64%
    17:00 +20°C° 0 mm 1 mps 740 mmHg 70%
    18:00 +18°C° 0 mm 1 mps 740 mmHg 75%
    19:00 +15°C° 0 mm 1 mps 740 mmHg 81%
    20:00 +14°C° 0 mm 1 mps 740 mmHg 81%
    21:00 +14°C° 0 mm 1 mps 739 mmHg 81%
    22:00 +14°C° 0 mm 1 mps 739 mmHg 81%
    23:00 +13°C° 0 mm 1 mps 739 mmHg 81%

    Tomorrow, 18 October, Wednesday

    Time Temperature Precipitation Wind Pressure Humidity
    00:00 +13°C° 0 mm 1 mps 738 mmHg 80%
    01:00 +13°C° 0 mm 1 mps 738 mmHg 80%
    02:00 +12°C° 0 mm 1 mps 738 mmHg 80%
    03:00 +12°C° 0 mm 1 mps 737 mmHg 80%
    04:00 +12°C° 0 mm 1 mps 737 mmHg 80%
    05:00 +12°C° 0 mm 1 mps 737 mmHg 80%
    06:00 +12°C° 0 mm 1 mps 737 mmHg 80%
    07:00 +12°C° 0 mm 1 mps 737 mmHg 80%
    08:00 +14°C° 0 mm 1 mps 737 mmHg 73%
    09:00 +18°C° 0 mm 1 mps 737 mmHg 65%
    10:00 +20°C° 0 mm 1 mps 737 mmHg 58%
    11:00 +21°C° 0 mm 1 mps 736 mmHg 55%
    12:00 +22°C° 0 mm 1 mps 736 mmHg 52%
    13:00 +23°C° 0 mm 1 mps 736 mmHg 49%
    14:00 +22°C° 0 mm 1 mps 735 mmHg 54%
    15:00 +21°C° 0 mm 1 mps 735 mmHg 59%
    16:00 +20°C° 0 mm 1 mps 735 mmHg 64%
    17:00 +19°C° 0 mm 1 mps 735 mmHg 70%
    18:00 +16°C° 0 mm 1 mps 735 mmHg 75%
    19:00 +14°C° 0 mm 1 mps 735 mmHg 81%
    20:00 +14°C° 0 mm 1 mps 735 mmHg 82%
    21:00 +14°C° 0 mm 1 mps 735 mmHg 82%
    22:00 +13°C° 0 mm 1 mps 735 mmHg 83%
    23:00 +13°C° 0 mm 1 mps 735 mmHg 84%

    Day after tomorrow, 19 October, Thursday

    Time Temperature Precipitation Wind Pressure Humidity
    00:00 +13°C° 0 mm 1 mps 735 mmHg 84%
    01:00 +13°C° 0 mm 1 mps 735 mmHg 85%
    02:00 +12°C° 0 mm 1 mps 735 mmHg 85%
    03:00 +12°C° 0 mm 1 mps 735 mmHg 86%
    04:00 +12°C° 0 mm 1 mps 735 mmHg 86%
    05:00 +12°C° 0 mm 1 mps 735 mmHg 86%
    06:00 +12°C° 0 mm 1 mps 735 mmHg 87%
    07:00 +12°C° 0 mm 1 mps 735 mmHg 87%
    08:00 +14°C° 0 mm 1 mps 736 mmHg 78%
    09:00 +18°C° 0 mm 1 mps 736 mmHg 70%
    10:00 +18°C° 0 mm 0 mps 736 mmHg 61%
    11:00 +19°C° 0 mm 0 mps 736 mmHg 57%
    12:00 +22°C° 0 mm 1 mps 736 mmHg 52%
    13:00 +23°C° 0 mm 1 mps 736 mmHg 48%
    14:00 +22°C° 0 mm 1 mps 735 mmHg 53%
    15:00 +21°C° 0 mm 1 mps 735 mmHg 57%
    16:00 +20°C° 0 mm 1 mps 735 mmHg 62%
    17:00 +19°C° 0 mm 1 mps 735 mmHg 67%
    18:00 +16°C° 0 mm 1 mps 735 mmHg 72%
    19:00 +14°C° 0 mm 1 mps 736 mmHg 78%
    20:00 +14°C° 0 mm 1 mps 736 mmHg 79%
    21:00 +13°C° 0 mm 1 mps 736 mmHg 81%
    22:00 +13°C° 0 mm 1 mps 736 mmHg 82%
    23:00 +13°C° 0 mm 1 mps 736 mmHg 83%

    20 October, Friday

    Time Temperature Precipitation Wind Pressure Humidity
    00:00 +12°C° 0 mm 1 mps 736 mmHg 83%
    01:00 +12°C° 0 mm 1 mps 736 mmHg 84%
    02:00 +12°C° 0 mm 1 mps 736 mmHg 85%
    03:00 +12°C° 0 mm 1 mps 736 mmHg 85%
    04:00 +10°C° 0 mm 0 mps 736 mmHg 86%
    05:00 +10°C° 0 mm 0 mps 736 mmHg 86%
    06:00 +10°C° 0 mm 0 mps 737 mmHg 85%
    07:00 +10°C° 0 mm 0 mps 737 mmHg 85%
    08:00 +13°C° 0 mm 0 mps 737 mmHg 76%
    09:00 +15°C° 0 mm 0 mps 737 mmHg 68%
    10:00 +18°C° 0 mm 0 mps 738 mmHg 59%
    11:00 +21°C° 0 mm 1 mps 737 mmHg 56%
    12:00 +22°C° 0 mm 1 mps 737 mmHg 53%
    13:00 +22°C° 0 mm 1 mps 737 mmHg 50%
    14:00 +22°C° 0 mm 1 mps 737 mmHg 56%
    15:00 +21°C° 0 mm 1 mps 737 mmHg 61%
    16:00 +20°C° 0 mm 1 mps 737 mmHg 66%
    17:00 +18°C° 0 mm 1 mps 737 mmHg 72%
    18:00 +15°C° 0 mm 1 mps 737 mmHg 77%
    19:00 +14°C° 0 mm 1 mps 738 mmHg 83%
    20:00 +13°C° 0 mm 1 mps 738 mmHg 83%
    21:00 +13°C° 0 mm 1 mps 738 mmHg 83%
    22:00 +13°C° 0 mm 1 mps 738 mmHg 84%
    23:00 +13°C° 0 mm 1 mps 738 mmHg 83%

    21 October, Saturday

    Time Temperature Precipitation Wind Pressure Humidity
    00:00 +12°C° 0 mm 1 mps 738 mmHg 83%
    01:00 +12°C° 0 mm 1 mps 738 mmHg 82%
    02:00 +12°C° 0 mm 1 mps 738 mmHg 81%
    03:00 +12°C° 0 mm 1 mps 738 mmHg 81%
    04:00 +12°C° 0 mm 1 mps 738 mmHg 80%
    05:00 +12°C° 0 mm 1 mps 738 mmHg 79%
    06:00 +12°C° 0 mm 1 mps 738 mmHg 78%
    07:00 +12°C° 0 mm 1 mps 738 mmHg 77%
    08:00 +15°C° 0 mm 1 mps 738 mmHg 69%
    09:00 +16°C° 0 mm 0 mps 738 mmHg 61%
    10:00 +19°C° 0 mm 0 mps 738 mmHg 53%
    11:00 +22°C° 0 mm 1 mps 737 mmHg 50%
    12:00 +23°C° 0 mm 1 mps 737 mmHg 47%
    13:00 +24°C° 0 mm 1 mps 737 mmHg 44%
    14:00 +23°C° 0 mm 1 mps 736 mmHg 50%
    15:00 +22°C° 0 mm 1 mps 736 mmHg 55%
    16:00 +21°C° 0 mm 1 mps 736 mmHg 61%
    17:00 +19°C° 0 mm 1 mps 736 mmHg 65%
    18:00 +18°C° 0 mm 1 mps 737 mmHg 69%
    19:00 +15°C° 0 mm 1 mps 737 mmHg 72%
    20:00 +15°C° 0 mm 1 mps 737 mmHg 73%
    21:00 +14°C° 0 mm 1 mps 737 mmHg 74%
    22:00 +14°C° 0 mm 1 mps 737 mmHg 74%
    23:00 +14°C° 0 mm 1 mps 737 mmHg 75%

    22 October, Sunday

    Time Temperature Precipitation Wind Pressure Humidity
    00:00 +14°C° 0 mm 1 mps 737 mmHg 75%
    01:00 +13°C° 0 mm 1 mps 737 mmHg 76%
    02:00 +13°C° 0 mm 1 mps 737 mmHg 77%
    03:00 +13°C° 0 mm 1 mps 737 mmHg 79%
    04:00 +13°C° 0 mm 1 mps 737 mmHg 81%
    05:00 +13°C° 0 mm 1 mps 737 mmHg 82%
    06:00 +13°C° 0 mm 1 mps 736 mmHg 83%
    07:00 +13°C° 0 mm 1 mps 736 mmHg 85%
    08:00 +14°C° 0.2 mm 1 mps 736 mmHg 84%
    09:00 +14°C° 0.2 mm 1 mps 736 mmHg 83%
    10:00 +15°C° 0.2 mm 1 mps 737 mmHg 82%
    11:00 +14°C° 1.3 mm 2 mps 736 mmHg 85%
    12:00 +13°C° 1.3 mm 2 mps 736 mmHg 87%
    13:00 +12°C° 1.3 mm 3 mps 736 mmHg 90%
    14:00 +11°C° 2 mm 3 mps 736 mmHg 91%
    15:00 +10°C° 2 mm 3 mps 736 mmHg 92%
    16:00 +10°C° 2 mm 3 mps 736 mmHg 93%
    17:00 +8°C° 0.9 mm 4 mps 737 mmHg 92%
    18:00 +8°C° 0.9 mm 4 mps 737 mmHg 92%
    19:00 +8°C° 0.9 mm 4 mps 738 mmHg 91%
    20:00 +8°C° 0.3 mm 4 mps 738 mmHg 90%
    21:00 +8°C° 0.3 mm 5 mps 739 mmHg 89%
    22:00 +8°C° 0.3 mm 5 mps 739 mmHg 88%
    23:00 +8°C° 0.1 mm 5 mps 739 mmHg 88%
    Show more